When you browse on this site, cookies collect data to enhance your experience and personalize the content and advertising you see.
Visit our Privacy Policy to learn more. By continuing to use the site, you agree to this use of cookies and data.
  • In Austria
  • List of Countries
  • For 7 days
  • Water Temperature
  • Weather Map
  • News
  • Weather Widgets
  • user-avatar
    Login

    Hourly Weather Zastavky

    Today, 27 January, Monday

    Time Temperature Precipitation Wind Pressure Humidity
    00:00 -2°C° 0 mm 2 mps 737 mmHg 79%
    01:00 -2°C° 0 mm 2 mps 737 mmHg 79%
    02:00 -2°C° 0 mm 2 mps 737 mmHg 80%
    03:00 -1°C° 0 mm 2 mps 737 mmHg 79%
    04:00 -1°C° 0 mm 2 mps 736 mmHg 79%
    05:00 -1°C° 0 mm 2 mps 736 mmHg 79%
    06:00 -1°C° 0 mm 2 mps 736 mmHg 81%
    07:00 -2°C° 0 mm 2 mps 736 mmHg 82%
    08:00 -2°C° 0 mm 2 mps 736 mmHg 83%
    09:00 +1°C° 0 mm 2 mps 736 mmHg 80%
    10:00 +2°C° 0 mm 2 mps 736 mmHg 77%
    11:00 +3°C° 0 mm 2 mps 736 mmHg 74%
    12:00 +3°C° 0 mm 2 mps 736 mmHg 74%
    13:00 +4°C° 0 mm 2 mps 735 mmHg 75%
    14:00 +4°C° 0 mm 2 mps 735 mmHg 75%
    15:00 +4°C° 0 mm 1 mps 735 mmHg 78%
    16:00 +4°C° 0 mm 1 mps 735 mmHg 81%
    17:00 +3°C° 0 mm 1 mps 734 mmHg 84%
    18:00 +3°C° 0 mm 1 mps 734 mmHg 85%
    19:00 +1°C° 0 mm 2 mps 734 mmHg 87%
    20:00 +1°C° 0 mm 2 mps 734 mmHg 88%
    21:00 +1°C° 0 mm 2 mps 734 mmHg 89%
    22:00 +1°C° 0 mm 2 mps 734 mmHg 89%
    23:00 +1°C° 0 mm 2 mps 734 mmHg 90%

    Tomorrow, 28 January, Tuesday

    Time Temperature Precipitation Wind Pressure Humidity
    00:00 +1°C° 0 mm 2 mps 733 mmHg 90%
    01:00 +1°C° 0 mm 2 mps 733 mmHg 90%
    02:00 +1°C° 0 mm 2 mps 733 mmHg 90%
    03:00 +1°C° 0 mm 2 mps 732 mmHg 90%
    04:00 +1°C° 0 mm 1 mps 732 mmHg 90%
    05:00 +1°C° 0 mm 1 mps 732 mmHg 90%
    06:00 +1°C° 0 mm 1 mps 732 mmHg 90%
    07:00 +1°C° 0 mm 1 mps 732 mmHg 89%
    08:00 +1°C° 0 mm 1 mps 731 mmHg 89%
    09:00 +1°C° 0 mm 2 mps 731 mmHg 86%
    10:00 +2°C° 0 mm 2 mps 731 mmHg 83%
    11:00 +2°C° 0 mm 3 mps 730 mmHg 79%
    12:00 +3°C° 0 mm 3 mps 730 mmHg 78%
    13:00 +3°C° 0 mm 3 mps 729 mmHg 76%
    14:00 +4°C° 0 mm 3 mps 729 mmHg 74%
    15:00 +3°C° 0 mm 3 mps 728 mmHg 78%
    16:00 +2°C° 0 mm 3 mps 728 mmHg 82%
    17:00 +1°C° 0 mm 3 mps 727 mmHg 86%
    18:00 +1°C° 0 mm 3 mps 727 mmHg 87%
    19:00 0°C° 0 mm 3 mps 727 mmHg 89%
    20:00 0°C° 0 mm 3 mps 726 mmHg 90%
    21:00 -1°C° 0 mm 4 mps 726 mmHg 92%
    22:00 -1°C° 0 mm 4 mps 725 mmHg 93%
    23:00 0°C° 0 mm 4 mps 725 mmHg 95%

    Day after tomorrow, 29 January, Wednesday

    Time Temperature Precipitation Wind Pressure Humidity
    00:00 0°C° 0 mm 5 mps 724 mmHg 95%
    01:00 0°C° 0 mm 5 mps 724 mmHg 95%
    02:00 0°C° 0 mm 5 mps 723 mmHg 96%
    03:00 0°C° 0 mm 5 mps 722 mmHg 96%
    04:00 0°C° 0 mm 5 mps 721 mmHg 95%
    05:00 0°C° 0 mm 5 mps 721 mmHg 95%
    06:00 0°C° 1 mm 4 mps 720 mmHg 96%
    07:00 +1°C° 1 mm 3 mps 720 mmHg 97%
    08:00 +1°C° 1 mm 2 mps 720 mmHg 98%
    09:00 -1°C° 1.5 mm 4 mps 720 mmHg 97%
    10:00 -2°C° 1.5 mm 6 mps 720 mmHg 97%
    11:00 -2°C° 1.5 mm 8 mps 720 mmHg 96%
    12:00 -2°C° 1 mm 8 mps 721 mmHg 95%
    13:00 -4°C° 1 mm 9 mps 721 mmHg 93%
    14:00 -4°C° 1 mm 9 mps 721 mmHg 92%
    15:00 -4°C° 0.1 mm 9 mps 721 mmHg 88%
    16:00 -4°C° 0.1 mm 8 mps 722 mmHg 85%
    17:00 -3°C° 0.1 mm 7 mps 722 mmHg 81%
    18:00 -3°C° 0 mm 7 mps 722 mmHg 83%
    19:00 -3°C° 0 mm 7 mps 723 mmHg 84%
    20:00 -3°C° 0 mm 7 mps 723 mmHg 85%
    21:00 -3°C° 0 mm 7 mps 723 mmHg 87%
    22:00 -3°C° 0 mm 7 mps 723 mmHg 90%
    23:00 -3°C° 0 mm 7 mps 723 mmHg 92%

    30 January, Thursday

    Time Temperature Precipitation Wind Pressure Humidity
    00:00 -3°C° 0.1 mm 7 mps 723 mmHg 93%
    01:00 -3°C° 0.1 mm 7 mps 723 mmHg 94%
    02:00 -3°C° 0.1 mm 7 mps 723 mmHg 94%
    03:00 -3°C° 0.3 mm 7 mps 724 mmHg 95%
    04:00 -3°C° 0.3 mm 7 mps 724 mmHg 95%
    05:00 -4°C° 0.3 mm 8 mps 724 mmHg 95%
    06:00 -4°C° 0.3 mm 8 mps 724 mmHg 95%
    07:00 -4°C° 0.3 mm 8 mps 724 mmHg 95%
    08:00 -4°C° 0.3 mm 9 mps 724 mmHg 95%
    09:00 -4°C° 0.1 mm 9 mps 725 mmHg 95%
    10:00 -4°C° 0.1 mm 10 mps 725 mmHg 95%
    11:00 -4°C° 0.1 mm 10 mps 726 mmHg 95%
    12:00 -3°C° 0.4 mm 10 mps 726 mmHg 95%
    13:00 -3°C° 0.4 mm 10 mps 727 mmHg 94%
    14:00 -3°C° 0.4 mm 11 mps 727 mmHg 93%
    15:00 -3°C° 0.1 mm 11 mps 727 mmHg 94%
    16:00 -3°C° 0.1 mm 10 mps 728 mmHg 94%
    17:00 -3°C° 0.1 mm 10 mps 729 mmHg 95%
    18:00 -4°C° 0 mm 10 mps 729 mmHg 92%
    19:00 -4°C° 0 mm 9 mps 730 mmHg 89%
    20:00 -4°C° 0 mm 8 mps 730 mmHg 86%
    21:00 -4°C° 0 mm 8 mps 731 mmHg 87%
    22:00 -3°C° 0 mm 7 mps 731 mmHg 87%
    23:00 -3°C° 0 mm 7 mps 731 mmHg 88%

    31 January, Friday

    Time Temperature Precipitation Wind Pressure Humidity
    00:00 -4°C° 0 mm 6 mps 731 mmHg 87%
    01:00 -4°C° 0 mm 5 mps 731 mmHg 87%
    02:00 -4°C° 0 mm 4 mps 731 mmHg 87%
    03:00 -4°C° 0 mm 5 mps 731 mmHg 89%
    04:00 -4°C° 0 mm 5 mps 731 mmHg 91%
    05:00 -4°C° 0 mm 5 mps 731 mmHg 94%
    06:00 -4°C° 0.1 mm 5 mps 731 mmHg 94%
    07:00 -2°C° 0.1 mm 5 mps 731 mmHg 94%
    08:00 -2°C° 0.1 mm 5 mps 730 mmHg 94%
    09:00 -2°C° 0.1 mm 5 mps 730 mmHg 95%
    10:00 -2°C° 0.1 mm 5 mps 730 mmHg 96%
    11:00 -2°C° 0.1 mm 6 mps 730 mmHg 97%
    12:00 -1°C° 0 mm 5 mps 729 mmHg 96%
    13:00 -1°C° 0 mm 5 mps 729 mmHg 94%
    14:00 -1°C° 0 mm 5 mps 729 mmHg 93%
    15:00 -1°C° 0.5 mm 5 mps 728 mmHg 94%
    16:00 -1°C° 0.5 mm 5 mps 728 mmHg 96%
    17:00 -2°C° 0.5 mm 5 mps 727 mmHg 98%
    18:00 -2°C° 1.3 mm 5 mps 727 mmHg 98%
    19:00 -2°C° 1.3 mm 5 mps 727 mmHg 98%
    20:00 -2°C° 1.3 mm 5 mps 727 mmHg 98%
    21:00 -2°C° 0.7 mm 5 mps 727 mmHg 98%
    22:00 -2°C° 0.7 mm 4 mps 727 mmHg 98%
    23:00 -1°C° 0.7 mm 4 mps 727 mmHg 98%

    1 February, Saturday

    Time Temperature Precipitation Wind Pressure Humidity
    00:00 -1°C° 0.1 mm 4 mps 727 mmHg 98%
    01:00 -1°C° 0.1 mm 4 mps 728 mmHg 99%
    02:00 -1°C° 0.1 mm 4 mps 728 mmHg 99%
    03:00 0°C° 0 mm 3 mps 729 mmHg 99%
    04:00 0°C° 0 mm 3 mps 729 mmHg 98%
    05:00 -1°C° 0 mm 2 mps 730 mmHg 98%
    06:00 -1°C° 0 mm 2 mps 730 mmHg 98%
    07:00 -1°C° 0 mm 2 mps 731 mmHg 98%
    08:00 +2°C° 0 mm 1 mps 732 mmHg 98%
    09:00 +2°C° 0 mm 1 mps 732 mmHg 98%
    10:00 +2°C° 0 mm 1 mps 733 mmHg 99%
    11:00 +2°C° 0 mm 1 mps 733 mmHg 99%
    12:00 +1°C° 0 mm 2 mps 733 mmHg 99%
    13:00 +2°C° 0 mm 2 mps 733 mmHg 99%
    14:00 +2°C° 0 mm 2 mps 733 mmHg 99%
    15:00 +2°C° 0 mm 2 mps 733 mmHg 99%
    16:00 +2°C° 0 mm 2 mps 733 mmHg 99%
    17:00 +2°C° 0 mm 2 mps 733 mmHg 98%
    18:00 +2°C° 0 mm 2 mps 733 mmHg 98%
    19:00 +2°C° 0 mm 2 mps 733 mmHg 97%
    20:00 +1°C° 0 mm 3 mps 733 mmHg 97%
    21:00 +1°C° 0 mm 3 mps 733 mmHg 97%
    22:00 +1°C° 0 mm 3 mps 733 mmHg 96%
    23:00 +1°C° 0 mm 4 mps 733 mmHg 96%
    Show more